DO1MDT Weather Reports


Display with metric or nautical units.
time (UTC)temp
F
wind
direction
speed
MPH
gust
MPH
rain 1hr
in
rain 24hr
in
rain mn
in
humidity
%
barometer
mb
20260506144554 51 246 2.0 7.0 0.07 2.42 2.41 60 1006.7
20260506143054 51 243 3.0 7.0 0.11 2.40 2.39 60 1006.6
20260506141551 51 235 2.0 9.0 0.11 2.39 2.38 60 1006.6
20260506140053 51 244 1.0 6.0 0.09 2.37 2.36 61 1006.7
20260506134616 51 232 2.0 11.0 0.07 2.34 2.33 61 1006.8
20260506133054 50 229 2.0 7.0 0.01 2.29 2.28 61 1006.8
20260506131609 50 0 2.0 8.0 0.00 2.27 2.26 61 1006.7
20260506130055 50 232 3.0 9.0 0.00 2.27 2.26 61 1006.7
20260506124556 50 227 3.0 7.0 0.00 2.27 2.26 61 1006.7
20260506123057 50 238 3.0 9.0 0.03 2.27 2.26 61 1006.8
20260506121604 50 238 1.0 11.0 0.04 2.27 2.26 61 1006.6
20260506120056 50 234 3.0 7.0 0.04 2.27 2.26 61 1006.4
20260506114556 49 227 2.0 7.0 0.03 2.26 2.25 61 1006.5
20260506113055 49 240 4.0 10.0 0.02 2.24 2.23 62 1006.5
20260506111610 49 227 3.0 6.0 0.01 2.22 2.22 62 1006.7
20260506110055 49 227 2.0 6.0 0.01 2.22 2.22 62 1006.6
20260506104554 49 236 3.0 5.0 0.01 2.22 2.22 62 1006.5
20260506103059 48 225 5.0 10.0 0.00 2.22 2.21 62 1006.5
20260506101554 48 222 3.0 8.0 0.00 2.21 2.20 62 1006.4
20260506100053 48 227 4.0 10.0 0.01 2.21 2.20 63 1006.5
20260506094556 48 226 1.0 6.0 0.03 2.21 2.20 63 1006.4
20260506093059 48 202 3.0 10.0 0.03 2.21 2.20 63 1006.4
20260506091555 48 208 2.0 5.0 0.02 2.20 2.19 62 1006.4
20260506090054 48 213 3.0 9.0 0.01 2.19 2.18 63 1006.2
20260506084553 48 202 2.0 6.0 0.00 2.18 2.17 63 1006.2
20260506083114 48 221 2.0 5.0 0.01 2.18 2.17 63 1006.1
20260506081555 48 221 2.0 6.0 0.02 2.18 2.17 63 1005.9
20260506073054 48 227 1.0 6.0 0.07 2.17 2.15 63 1005.9
20260506071555 48 211 1.0 6.0 0.10 2.16 2.14 63 1005.9
20260506070124 48 221 1.0 4.0 0.09 2.14 2.12 63 1005.9
20260506061558 48 188 0.0 2.0 0.14 2.06 2.04 63 1005.7
20260506050108 48 215 2.0 7.0 0.29 1.93 1.85 64 1005.5
20260506044557 49 211 2.0 6.0 0.26 1.87 1.76 64 1005.6
20260506043104 49 0 2.0 8.0 0.25 1.77 1.66 63 1005.6
20260506041603 49 220 2.0 5.0 0.27 1.72 1.61 63 1005.7
20260506040059 49 242 2.0 7.0 0.28 1.66 1.55 63 1005.8
20260506034600 49 244 2.0 8.0 0.29 1.61 1.49 64 1005.8
20260506033054 50 232 3.0 9.0 0.29 1.52 1.40 64 1006.0
20260506031601 50 0 2.0 5.0 0.27 1.45 1.33 64 1006.1
20260506030059 50 246 2.0 7.0 0.29 1.38 1.26 64 1006.1
20260506024601 50 229 0.0 4.0 0.29 1.33 1.19 64 1006.3
20260506023056 50 229 2.0 4.0 0.30 1.25 1.11 64 1006.3
20260506021558 50 229 2.0 6.0 0.32 1.19 1.06 64 1006.4
20260506020108 50 232 2.0 6.0 0.32 1.11 0.97 64 1006.6
20260506014612 51 237 1.0 5.0 0.30 1.03 0.88 64 1006.5
20260506013056 51 0 0.0 4.0 0.29 0.95 0.81 64 1006.7
20260506011623 51 233 1.0 4.0 0.27 0.88 0.74 65 1006.6
20260506010055 51 232 3.0 8.0 0.25 0.79 0.65 65 1006.9
20260506004602 51 217 3.0 7.0 0.24 0.72 0.58 65 1007.0
20260506003053 51 0 1.0 7.0 0.24 0.66 0.51 65 1007.0
20260506001556 51 228 2.0 11.0 0.24 0.60 0.46 65 1007.2
20260506000118 51 0 1.0 5.0 0.23 0.54 0.40 66 1007.3
20260505234555 51 244 2.0 7.0 0.22 0.48 0.33 66 1007.5
20260505233057 51 226 3.0 8.0 0.20 0.41 0.26 66 1007.6
20260505231604 51 219 3.0 10.0 0.18 0.37 0.22 67 1007.6
20260505230106 51 215 4.0 9.0 0.15 0.31 0.16 67 1007.7
20260505224552 51 241 2.0 6.0 0.11 0.27 0.11 68 1007.8
20260505223055 51 242 3.0 10.0 0.07 0.22 0.06 69 1007.8
20260505221601 52 249 4.0 9.0 0.03 0.19 0.03 69 1007.9
20260505220054 52 236 4.0 11.0 0.00 0.16 0.00 69 1007.9
20260505214556 52 237 4.0 10.0 0.00 0.16 0.15 70 1008.1
20260505213054 52 216 3.0 10.0 0.00 0.16 0.15 70 1008.2
20260505211552 52 236 2.0 10.0 0.00 0.16 0.15 70 1008.2
20260505210055 52 234 2.0 12.0 0.00 0.16 0.15 70 1008.3
20260505204559 52 236 3.0 12.0 0.00 0.23 0.15 70 1008.3
20260505203100 52 223 6.0 13.0 0.00 0.23 0.15 70 1008.5
20260505201554 52 231 4.0 11.0 0.00 0.23 0.15 70 1008.3
20260505200055 52 220 3.0 9.0 0.00 0.23 0.15 71 1008.3
20260505194611 53 219 6.0 10.0 0.00 0.32 0.15 71 1008.3
20260505193053 53 215 1.0 9.0 0.00 0.32 0.15 72 1008.2
20260505191606 53 215 3.0 11.0 0.00 0.32 0.15 72 1008.2
20260505190056 53 209 3.0 10.0 0.00 0.32 0.15 72 1008.2
20260505184558 54 177 2.0 8.0 0.00 0.63 0.15 73 1008.1
20260505183055 54 213 4.0 11.0 0.00 0.63 0.15 73 1008.3
20260505181557 54 213 3.0 8.0 0.00 0.63 0.15 73 1008.2
20260505180100 54 204 4.0 11.0 0.00 0.63 0.15 74 1008.4
20260505174555 54 226 4.0 12.0 0.00 1.11 0.15 74 1008.5
20260505173112 55 199 1.0 10.0 0.00 1.11 0.15 74 1008.4
20260505171615 55 226 5.0 10.0 0.00 1.11 0.15 74 1008.5
20260505170057 56 213 4.0 10.0 0.00 1.11 0.15 75 1008.5
20260505164558 56 213 3.0 8.0 0.00 1.11 0.15 75 1008.6
20260505163056 57 224 1.0 12.0 0.00 1.11 0.15 75 1008.6
20260505161557 57 209 2.0 11.0 0.00 1.11 0.15 75 1008.6
20260505153108 58 227 3.0 10.0 0.00 1.11 0.15 76 1008.7
20260505151558 59 0 1.0 11.0 0.00 1.11 0.15 75 1008.9
20260505150127 59 182 3.0 10.0 0.00 1.11 0.15 75 1008.9